Dewpoint
-2 -1 -0 0 -1 -1 -3 -1 0 -1 -1 0 0 -0 -2 -1 -0 0 1 1 1 0 0 -0 -1 -2 -2 -3 -5 -9 -10 -12 -11 -8 -9 -10 -11 -10 -10 -10 -8 -8 -7 -7
-2 -2 -4 -2 -2 -1 -1 -0 -0 -0 -1 -0 -0 0 -2 -2 -1 -1 0 0 1 1 0 -0 -0 -1 -1 -3 -5 -7 -7 -10 -10 -8 -9 -9 -10 -10 -11 -10 -9 -8 -7 -7
-4 -4 -2 -1 -2 -1 -1 -1 -1 -2 -0 -1 0 1 -0 -2 -2 -2 -1 -1 0 0 0 0 -0 -1 -1 -3 -5 -6 -7 -8 -10 -11 -10 -11 -12 -13 -13 -11 -10 -9 -7 -7
-4 -6 -1 -1 -1 -1 0 -3 -3 -1 -0 -0 -0 -4 -4 -3 -1 -2 -2 -2 -0 0 0 0 -1 -1 -2 -3 -6 -6 -9 -8 -8 -9 -10 -10 -12 -12 -11 -11 -9 -8 -7 -7
-4 -6 -2 0 -1 -2 -1 -4 -2 -1 -1 -1 -1 -1 -7 -3 -2 -2 -2 -2 -0 0 0 -0 -1 -1 -3 -3 -4 -8 -8 -8 -8 -8 -11 -11 -11 -11 -11 -10 -9 -9 -8 -8
-7 -9 -9 -7 -8 -7 -6 -5 -4 -3 -3 -3 -6 -3 -9 -6 -4 -3 -3 -3 -1 0 0 -0 -1 -2 -3 -4 -5 -7 -7 -8 -8 -8 -10 -10 -10 -10 -10 -9 -10 -10 -9 -9
-7 -8 -10 -10 -8 -8 -8 -6 -3 -3 -4 -5 -7 -4 -7 -5 -4 -3 -3 -3 -1 0 0 -0 -1 -2 -3 -4 -5 -6 -8 -7 -8 -9 -11 -12 -11 -10 -10 -10 -10 -9 -10 -9
-3 -3 -8 -10 -8 -7 -7 -6 -3 -2 -6 -7 -5 -6 -6 -4 -4 -3 -3 -2 -1 0 0 -1 -1 -2 -3 -4 -5 -7 -8 -8 -9 -10 -10 -11 -11 -11 -11 -10 -9 -10 -9 -8
-3 -3 -11 -11 -10 -9 -6 -6 -7 -4 -3 -5 -10 -9 -5 -4 -4 -3 -3 -1 -0 0 0 -1 -1 -2 -3 -4 -5 -7 -8 -8 -9 -9 -11 -11 -11 -10 -10 -10 -10 -11 -9 -9
-5 -2 -9 -12 -12 -11 -8 -8 -5 -6 -3 -4 -8 -7 -9 -4 -4 -2 -2 -1 -0 -0 -0 -1 -1 -2 -3 -4 -7 -9 -8 -9 -9 -10 -11 -12 -11 -11 -11 -11 -11 -11 -9 -9
-6 -4 -6 -11 -9 -7 -8 -7 -7 -6 -5 -5 -5 -8 -4 -4 -5 -2 -2 -1 -0 -0 -0 -1 -2 -2 -3 -4 -7 -7 -8 -8 -8 -9 -11 -12 -12 -12 -13 -14 -12 -12 -12 -12
-5 -3 -2 -6 -10 -13 -10 -8 -6 -5 -4 -4 -2 -5 -6 -2 -3 -2 -2 -1 -0 -0 -1 -1 -2 -3 -3 -5 -8 -8 -8 -8 -8 -11 -12 -12 -13 -15 -17 -16 -15 -16 -14 -14
-4 -3 -2 -4 -7 -9 -10 -10 -8 -6 -5 -4 -4 -5 -4 -3 -3 -2 -1 -1 -1 -0 -1 -2 -2 -3 -4 -6 -7 -8 -8 -8 -9 -13 -13 -13 -14 -17 -17 -17 -16 -18 -15 -14
-4 -3 -3 -3 -5 -6 -5 -9 -10 -7 -5 -6 -5 -7 -5 -6 -5 -2 -1 -1 -1 -1 -1 -2 -3 -3 -5 -7 -7 -8 -8 -8 -11 -14 -14 -14 -14 -16 -17 -17 -16 -15 -15 -14
-2 -2 -3 -5 -5 -6 -7 -8 -9 -8 -8 -6 -7 -7 -8 -5 -4 -2 -1 -1 -1 -1 -1 -2 -3 -3 -6 -7 -7 -8 -8 -9 -16 -14 -14 -13 -14 -16 -16 -16 -16 -15 -14 -13
-1 -3 -1 -2 -3 -4 -5 -7 -9 -9 -10 -9 -9 -9 -5 -2 -2 -1 -1 -1 -1 -1 -2 -2 -3 -4 -6 -7 -7 -8 -8 -13 -16 -13 -13 -13 -15 -16 -15 -15 -16 -16 -14 -13
-1 -0 -1 -2 -2 -3 -2 -3 -6 -9 -9 -9 -6 -6 -4 -3 -3 -2 -1 -2 -2 -2 -2 -3 -4 -6 -7 -7 -8 -8 -9 -21 -14 -13 -14 -14 -15 -15 -14 -15 -15 -16 -14 -13
-0 -0 0 0 -1 12 -3 -4 -4 -6 -6 -7 -7 -6 -5 -4 -2 -2 -2 -2 -2 -2 -2 -3 -5 -6 -7 -7 -8 -9 -14 -15 -14 -13 -14 -14 -14 -15 -14 -15 -15 -16 -15 -14
-1 -0 2 10 2 -2 -5 -5 -5 -4 -4 -7 -6 -4 -3 -3 -2 -2 -2 -2 -2 -2 -2 -4 -5 -6 -7 -7 -8 -12 -16 -14 -14 -13 -14 -14 -15 -15 -14 -14 -14 -16 -15 -14
-1 -1 0 7 14 3 -2 -6 -7 -7 -2 -6 -5 -3 -3 -3 -2 -2 -1 -2 -2 -2 -3 -5 -6 -7 -7 -8 -9 -15 -15 -14 -14 -14 -18 -15 -17 -15 -14 -14 -15 -16 -15 -14
1 0 1 1 4 2 -3 -9 -8 -1 1 -5 -4 -3 -3 -2 -1 -2 -2 -2 -3 -4 -5 -6 -7 -7 -7 -9 -14 -15 -14 -14 -21 -23 -17 -17 -18 -17 -15 -14 -16 -15 -14 -13
3 5 4 3 3 8 -4 -9 -2 -0 -2 -3 -2 -2 -1 -3 -3 -2 -3 -3 -4 -5 -5 -6 -7 -7 -8 -12 -15 -14 -18 -25 -23 -19 -23 -29 -26 -18 -16 -16 -16 -14 -12 -12
5 3 4 2 2 2 -1 -3 -3 -3 -2 -2 -1 -1 -4 -3 -3 -3 -3 -4 -4 -5 -6 -7 -7 -8 -9 -16 -15 -16 -24 -22 -23 -28 -32 -28 -18 -18 -20 -16 -15 -12 -11 -11
3 3 5 5 4 2 2 2 -0 -5 -5 -3 -2 -4 -5 -3 -3 -3 -4 -4 -5 -6 -7 -7 -7 -9 -11 -18 -24 -29 -28 -28 -31 -32 -19 -17 -21 -19 -21 -20 -13 -13 -14 -12
3 3 4 5 5 3 2 -1 -3 -5 -6 -6 -5 -4 -3 -3 -3 -3 -3 -4 -5 -6 -7 -7 -9 -8 -11 -29 -31 -30 -29 -29 -18 -17 -18 -18 -18 -19 -19 -23 -23 -20 -23 -26
2 3 5 6 3 1 2 -1 -5 -6 -6 -6 -6 -3 -3 -3 -3 -3 -4 -5 -6 -6 -7 -8 -7 -8 -15 -33 -31 -29 -26 -19 -18 -18 -19 -26 -19 -20 -20 -16 -13 -26 -28 -32
Wind_Speed
9 8 12 17 15 5 3 8 9 10 7 14 18 16 14 21 25 25 25 24 22 19 16 13 10 6 2 4 8 8 10 14 14 12 13 12 13 13 13 13 14 14 15 16
6 13 9 9 5 6 7 7 6 3 5 13 10 18 15 21 28 27 26 25 24 21 18 15 11 7 4 2 6 7 9 13 14 11 12 13 12 12 12 13 13 13 15 16
12 3 7 13 11 9 7 8 4 6 7 11 6 16 17 15 23 24 24 24 24 24 21 17 13 9 5 2 4 5 9 12 13 14 12 13 11 11 12 13 12 13 15 16
9 5 12 13 15 13 12 5 5 8 9 5 8 6 7 8 13 20 24 24 25 25 21 18 15 10 7 2 3 6 10 11 11 14 12 13 13 13 13 12 13 12 14 15
4 8 11 11 8 11 1 4 4 7 7 5 9 7 2 3 9 14 21 23 25 24 22 20 16 12 8 3 2 6 9 9 11 10 13 12 12 12 12 12 13 13 14 14
3 1 3 1 6 3 14 8 6 4 5 8 5 8 3 3 2 2 11 19 22 24 23 19 16 12 8 5 3 5 7 8 9 11 13 13 12 12 12 13 13 14 14 14
5 6 4 8 9 9 7 8 5 6 5 4 4 6 8 3 1 2 2 12 20 24 24 21 17 13 9 5 3 4 6 6 8 11 12 13 12 11 11 13 13 14 14 14
10 7 11 8 5 7 15 9 6 7 5 1 3 7 1 5 1 2 3 10 19 23 23 20 17 13 9 6 3 3 4 5 7 10 11 11 12 11 11 12 13 13 13 14
6 5 4 1 3 3 6 8 4 5 1 5 7 5 6 3 3 5 8 13 19 22 22 20 17 13 10 7 2 2 3 4 7 9 11 11 11 11 12 12 13 13 13 14
5 5 3 5 4 3 5 9 4 5 5 7 4 7 3 7 8 8 10 13 17 20 21 20 16 13 10 7 3 2 2 4 7 10 11 10 11 12 12 12 13 14 14 15
7 7 6 5 10 12 6 9 5 4 4 6 7 3 3 6 4 7 10 13 19 22 22 20 16 13 10 8 4 2 1 4 7 9 10 10 11 12 12 13 14 14 15 16
4 5 10 11 2 5 10 12 14 7 7 3 4 5 5 3 3 3 11 15 18 21 21 19 16 13 10 8 4 2 1 4 8 9 9 9 11 12 13 13 14 15 15 16
3 5 10 6 4 5 8 13 13 8 2 10 7 2 5 5 4 4 12 16 19 21 21 19 16 13 10 7 5 2 2 4 8 8 8 9 11 12 13 14 15 16 16 16
3 6 12 13 11 3 5 13 16 15 9 11 13 7 8 6 3 7 12 16 20 22 22 19 15 12 10 8 5 3 2 5 8 7 7 9 11 12 13 13 15 16 16 15
2 8 7 9 6 5 8 9 14 18 20 9 8 9 4 3 3 9 14 18 21 22 21 19 16 13 11 8 5 4 3 6 8 6 7 9 11 12 13 14 15 16 16 16
2 7 3 6 5 6 10 10 11 16 15 14 8 9 4 6 8 13 16 19 20 21 20 18 15 13 11 8 6 4 3 6 5 6 7 9 11 12 14 15 16 16 16 17
2 3 4 14 3 4 9 15 15 9 9 11 10 3 11 7 8 12 15 17 18 19 19 18 15 12 10 8 7 4 3 5 4 6 7 9 11 13 14 15 16 17 17 17
6 5 2 7 2 4 5 2 5 14 6 7 4 7 4 9 9 8 9 13 16 18 19 17 14 12 10 9 7 3 4 3 5 6 7 10 11 13 15 15 17 18 17 17
2 1 4 3 5 11 12 5 5 9 8 9 7 8 10 12 13 8 8 10 14 17 17 15 14 13 11 9 5 3 5 4 5 6 6 8 10 11 13 15 17 17 17 16
10 4 3 2 5 7 7 0 2 3 3 10 12 15 16 15 7 5 12 14 17 18 17 17 15 14 12 8 5 6 5 5 4 5 6 7 10 11 13 15 16 17 16 16
5 2 2 6 6 6 9 7 4 5 4 8 10 13 14 6 5 18 17 17 17 18 19 17 15 13 11 7 6 7 5 4 4 5 6 8 10 11 12 14 15 16 16 16
5 3 2 2 3 7 10 4 8 7 3 9 8 10 11 13 17 18 18 19 20 20 18 16 15 13 9 7 8 6 4 4 5 5 7 9 11 11 12 14 15 16 16 16
4 5 3 7 3 1 7 7 8 6 5 3 7 13 15 17 18 18 20 20 19 19 18 15 14 12 9 8 7 6 5 4 4 5 7 10 10 11 14 14 16 16 17 16
1 2 4 3 4 5 7 13 10 6 5 4 8 14 16 17 19 20 20 20 19 18 16 15 13 11 9 8 7 6 6 5 6 8 9 8 10 11 13 15 15 17 19 18
1 1 8 7 11 14 17 13 10 8 6 9 11 14 14 18 17 18 20 19 18 18 16 14 12 10 9 8 8 7 6 7 7 6 6 7 9 11 11 15 20 19 21 22
9 5 5 5 13 14 16 13 16 12 13 14 16 18 16 14 18 20 19 19 19 18 16 14 12 10 10 9 9 8 8 6 5 5 6 8 8 10 10 10 11 19 20 21
Wind_Direction
185 189 204 192 213 328 228 214 199 199 162 202 228 245 195 201 207 205 204 201 200 194 185 178 171 165 142 27 20 24 11 3 9 10 4 0 356 350 353 356 355 1 359 0
185 227 221 194 191 208 196 196 198 130 178 212 237 255 246 203 214 213 209 206 204 194 188 183 178 168 157 32 23 26 14 4 11 7 4 359 352 351 354 349 352 353 358 359
229 80 170 174 183 185 206 232 199 300 165 212 284 263 245 215 221 221 220 216 210 203 195 187 181 176 161 103 34 30 13 8 8 15 0 360 355 354 346 348 347 348 355 356
239 142 181 194 213 218 241 203 223 174 190 280 199 289 249 233 211 218 218 213 210 204 199 188 181 175 167 164 42 27 11 14 6 8 5 3 1 353 342 344 340 350 349 353
142 179 186 201 212 198 288 144 170 194 230 267 193 260 236 143 228 226 214 214 210 204 198 186 180 176 165 142 94 21 14 16 10 8 6 6 360 350 343 343 346 346 347 349
65 127 221 69 89 219 139 130 131 186 241 254 288 242 261 190 108 103 209 206 204 199 195 185 177 167 161 142 75 32 24 13 9 8 4 3 358 350 347 345 349 348 346 347
171 168 137 164 118 139 199 196 251 229 211 280 150 221 281 140 89 332 200 192 193 191 189 182 176 169 162 145 98 41 26 16 8 5 4 1 356 351 348 348 345 348 345 347
218 200 182 170 239 210 207 235 251 276 259 304 178 241 102 108 48 328 205 178 179 182 185 183 176 169 162 145 116 42 39 16 7 5 4 1 359 352 348 344 347 344 345 343
216 212 141 174 178 232 172 220 343 272 214 263 251 228 157 171 135 122 140 159 172 178 180 178 173 167 160 148 135 74 45 12 6 6 3 359 355 351 346 347 347 342 344 344
216 230 206 136 170 115 258 133 191 216 263 261 203 265 287 164 164 159 164 167 170 175 175 174 171 164 156 150 143 35 51 13 10 6 1 356 351 350 347 346 345 345 346 343
217 241 142 176 209 213 174 207 223 282 270 276 286 277 87 127 143 173 168 171 174 175 173 173 169 159 155 151 146 130 54 19 11 4 0 356 353 352 350 350 348 347 347 346
201 265 234 223 95 291 262 245 213 236 213 236 301 287 144 123 92 151 163 172 173 172 172 169 164 159 158 157 152 160 59 22 6 3 2 357 357 356 356 355 350 349 348 348
191 226 242 210 193 195 231 216 226 245 255 228 257 268 152 144 112 131 160 166 167 167 168 166 164 161 161 163 157 151 61 15 4 4 4 2 359 360 359 356 352 352 351 352
303 257 253 262 308 26 210 217 216 218 238 243 237 247 188 204 193 157 159 164 165 169 170 168 164 163 163 162 159 142 72 11 3 8 7 6 360 1 1 358 355 352 353 353
276 267 263 265 271 257 272 252 219 220 232 226 268 231 142 128 156 166 160 160 165 169 171 171 167 165 164 160 154 133 71 10 2 13 11 6 0 1 3 0 357 355 356 355
300 269 303 273 266 272 260 253 245 236 249 253 253 260 97 111 132 149 160 165 170 173 173 169 166 163 165 159 151 133 58 6 16 18 14 4 4 2 3 360 359 359 359 357
281 288 264 270 299 285 265 242 228 224 226 239 237 281 154 154 160 161 164 171 173 173 170 168 165 162 158 154 142 125 45 12 37 25 17 10 6 4 3 359 359 1 360 359
296 302 273 285 239 247 295 36 300 231 231 199 123 128 134 131 117 130 154 165 167 167 166 163 160 153 146 139 131 80 45 63 43 27 20 13 10 5 1 359 0 2 2 0
151 318 289 258 239 286 269 213 187 180 220 188 151 127 121 129 122 94 136 152 160 160 157 153 151 145 141 135 124 85 88 70 51 35 24 13 11 4 3 3 5 5 4 2
114 149 233 357 283 258 19 88 234 265 226 157 154 154 160 162 202 136 152 148 142 146 147 145 143 139 135 130 113 105 102 81 60 43 24 14 15 6 6 7 8 8 8 6
258 198 267 297 269 300 5 339 310 229 33 152 160 161 163 183 43 140 140 136 140 141 144 144 139 132 132 129 120 124 111 95 63 41 30 24 21 13 12 12 12 13 14 13
243 213 183 154 250 255 8 292 343 343 87 147 138 153 145 130 126 128 133 138 140 143 144 143 136 134 135 131 131 131 119 85 65 49 38 33 30 26 20 20 19 20 19 20
239 252 257 202 197 325 333 286 331 339 355 56 146 147 155 141 135 139 140 140 143 144 144 139 139 136 135 135 143 138 109 95 77 59 47 47 33 31 30 30 28 26 27 26
72 45 266 284 247 259 271 283 306 293 255 188 178 163 163 152 145 142 143 145 147 146 145 144 142 138 138 144 144 129 121 100 77 61 50 43 38 43 39 37 36 34 33 29
268 96 351 295 298 311 273 263 245 224 212 174 162 162 163 155 145 147 147 150 151 149 150 145 143 146 148 145 139 131 114 93 76 67 56 48 46 45 42 40 46 41 36 34
205 168 131 235 274 264 291 248 217 203 183 170 171 160 153 152 154 152 151 156 158 153 153 152 158 152 148 141 139 128 109 98 92 77 64 68 53 48 47 47 35 43 41 39
Height
1514 1513 1513 1513 1512 1516 1512 1517 1521 1522 1530 1538 1535 1531 1535 1549 1551 1552 1557 1563 1568 1571 1573 1573 1574 1574 1574 1573 1572 1570 1569 1566 1564 1562 1560 1558 1555 1552 1548 1544 1539 1535 1532 1528
1514 1510 1503 1509 1519 1517 1516 1519 1522 1532 1533 1537 1529 1527 1524 1537 1541 1544 1550 1557 1563 1568 1569 1570 1572 1573 1574 1572 1571 1569 1567 1565 1562 1561 1558 1555 1553 1550 1547 1544 1540 1536 1531 1528
1503 1505 1508 1512 1518 1519 1518 1519 1523 1524 1533 1536 1536 1527 1518 1522 1533 1540 1545 1551 1558 1562 1566 1567 1570 1572 1572 1571 1569 1568 1566 1563 1561 1558 1558 1556 1554 1551 1548 1544 1540 1536 1531 1528
1504 1509 1510 1511 1512 1514 1517 1517 1521 1528 1529 1527 1533 1522 1507 1510 1523 1532 1538 1545 1551 1558 1563 1565 1567 1569 1570 1569 1567 1566 1564 1562 1560 1557 1556 1553 1552 1549 1546 1543 1539 1535 1531 1528
1506 1512 1512 1512 1510 1513 1515 1522 1523 1524 1522 1529 1529 1533 1499 1519 1520 1523 1531 1538 1546 1553 1559 1561 1564 1566 1567 1567 1566 1563 1562 1561 1559 1557 1554 1553 1550 1548 1545 1542 1538 1535 1531 1528
1509 1513 1511 1508 1518 1517 1523 1525 1526 1526 1524 1528 1518 1526 1501 1505 1511 1518 1522 1532 1541 1549 1555 1559 1562 1563 1565 1565 1563 1562 1561 1560 1558 1556 1553 1551 1548 1546 1545 1541 1538 1533 1530 1527
1510 1510 1513 1514 1517 1522 1519 1520 1522 1526 1530 1522 1525 1529 1502 1508 1516 1520 1523 1529 1537 1544 1551 1556 1558 1561 1562 1562 1561 1561 1561 1559 1557 1555 1552 1549 1547 1546 1544 1540 1537 1533 1530 1526
1507 1518 1510 1511 1509 1510 1514 1512 1519 1531 1520 1517 1528 1517 1500 1514 1519 1521 1524 1527 1534 1542 1548 1553 1556 1559 1560 1559 1560 1559 1560 1559 1557 1554 1551 1548 1547 1546 1543 1540 1536 1533 1529 1524
1504 1503 1511 1513 1513 1512 1518 1521 1513 1523 1532 1527 1499 1501 1511 1515 1517 1521 1525 1528 1534 1540 1546 1551 1554 1556 1557 1557 1558 1559 1559 1558 1555 1552 1550 1548 1546 1544 1541 1538 1534 1531 1527 1522
1496 1509 1510 1514 1514 1515 1512 1512 1523 1520 1530 1522 1500 1503 1489 1506 1510 1520 1526 1529 1534 1540 1544 1549 1552 1554 1555 1556 1556 1557 1557 1556 1553 1551 1549 1548 1545 1542 1540 1537 1533 1529 1525 1521
1495 1499 1512 1513 1509 1501 1514 1511 1513 1511 1514 1514 1510 1492 1499 1502 1507 1513 1521 1527 1532 1536 1541 1546 1550 1551 1553 1554 1555 1556 1555 1554 1552 1550 1549 1547 1544 1541 1539 1536 1532 1528 1523 1519
1500 1496 1500 1502 1505 1506 1500 1500 1505 1513 1513 1515 1516 1504 1504 1506 1510 1514 1518 1525 1529 1535 1540 1545 1548 1549 1551 1553 1554 1555 1554 1553 1551 1549 1548 1547 1544 1540 1538 1534 1531 1526 1522 1517
1502 1500 1505 1505 1508 1507 1505 1500 1501 1503 1508 1507 1513 1497 1504 1508 1510 1514 1519 1524 1529 1534 1540 1543 1546 1548 1551 1552 1553 1555 1553 1552 1549 1549 1548 1546 1544 1540 1537 1533 1530 1526 1521 1517
1509 1497 1497 1498 1489 1489 1502 1497 1497 1500 1502 1497 1498 1491 1502 1503 1506 1514 1518 1522 1528 1533 1538 1541 1545 1547 1550 1551 1553 1554 1552 1551 1549 1548 1547 1545 1544 1540 1536 1533 1529 1525 1521 1516
1509 1502 1497 1492 1498 1498 1495 1493 1495 1496 1490 1497 1483 1491 1492 1502 1506 1511 1516 1522 1527 1531 1536 1540 1543 1546 1548 1550 1553 1553 1552 1550 1550 1549 1547 1545 1543 1540 1536 1534 1530 1526 1521 1517
1510 1506 1506 1501 1501 1499 1497 1491 1491 1491 1488 1490 1492 1494 1500 1506 1509 1512 1516 1520 1525 1530 1535 1539 1542 1545 1548 1550 1551 1551 1550 1548 1549 1548 1547 1546 1544 1541 1537 1535 1530 1526 1522 1517
1511 1509 1508 1505 1506 1502 1501 1487 1486 1487 1489 1491 1495 1488 1500 1505 1508 1511 1515 1519 1524 1529 1534 1538 1542 1546 1548 1549 1550 1552 1549 1548 1549 1549 1547 1546 1544 1542 1538 1536 1531 1526 1521 1517
1512 1512 1513 1504 1509 1518 1481 1488 1488 1484 1488 1490 1494 1497 1502 1505 1510 1514 1517 1520 1524 1529 1533 1538 1542 1545 1548 1549 1550 1551 1550 1550 1549 1549 1548 1546 1544 1543 1540 1536 1531 1526 1522 1518
1514 1516 1515 1518 1507 1489 1479 1488 1488 1486 1486 1489 1494 1504 1508 1511 1513 1518 1520 1522 1526 1530 1535 1539 1542 1545 1546 1548 1549 1550 1550 1551 1550 1549 1548 1545 1542 1540 1537 1534 1529 1526 1522 1520
1508 1513 1518 1523 1516 1504 1490 1490 1490 1490 1485 1491 1494 1500 1505 1508 1504 1511 1517 1521 1525 1531 1535 1538 1541 1544 1545 1547 1549 1550 1552 1550 1551 1548 1546 1545 1542 1542 1538 1535 1530 1526 1523 1521
1501 1503 1513 1513 1518 1499 1498 1500 1495 1495 1493 1495 1498 1501 1504 1508 1511 1514 1517 1524 1528 1531 1534 1537 1540 1544 1545 1547 1548 1550 1551 1549 1548 1547 1547 1546 1544 1542 1539 1536 1532 1528 1525 1522
1506 1510 1511 1513 1512 1510 1504 1505 1505 1505 1498 1497 1499 1504 1509 1511 1513 1518 1521 1526 1528 1530 1536 1539 1540 1542 1544 1547 1550 1551 1549 1549 1548 1548 1548 1546 1544 1542 1540 1537 1533 1530 1527 1524
1510 1506 1507 1509 1504 1501 1507 1510 1507 1505 1504 1504 1506 1505 1509 1513 1514 1520 1523 1527 1531 1533 1536 1540 1543 1543 1545 1548 1550 1550 1550 1550 1549 1548 1548 1546 1545 1543 1541 1538 1535 1532 1529 1526
1510 1514 1511 1509 1502 1505 1503 1505 1503 1504 1504 1506 1507 1506 1511 1515 1516 1519 1525 1528 1533 1535 1539 1540 1543 1545 1547 1549 1550 1550 1549 1550 1550 1550 1551 1550 1548 1546 1543 1540 1537 1534 1530 1527
1509 1511 1514 1512 1508 1510 1504 1502 1502 1502 1502 1504 1507 1509 1512 1516 1518 1522 1525 1531 1534 1535 1538 1541 1544 1546 1548 1549 1550 1550 1551 1551 1552 1553 1553 1552 1550 1548 1546 1543 1539 1537 1534 1530
1506 1506 1512 1517 1512 1512 1507 1503 1500 1500 1502 1503 1506 1510 1512 1514 1517 1521 1527 1531 1533 1534 1538 1542 1544 1546 1547 1549 1550 1551 1553 1554 1555 1555 1554 1552 1552 1550 1549 1547 1544 1541 1538 1535